Date String (YYYY-MM-DD hh:mm:ss) UTC,Instrument flags,absolute air pressure of the measurement (hPa),sample flow rate (lpm),inlet stack bypass flow (lpm),air temperature of the measurement (°C),ambient temperature measured by the external sensor (°C),aerosol sample conditioner tube jacket temperature (°C),OPC LED temperature (°C),internal box temperature (°C),relative humidity of the measurement (%),span deviation,mass concentration of particles derived from Lorenz-Mie calculation of OPC scattering (μg/m³),mass concentration of particles derived from Lorenz-Mie calculation of OPC scattering (μg/m³),mass concentration of particles derived from Lorenz-Mie calculation of OPC scattering (μg/m³)
DateTimeUTC,F1_M11,P_M11,Q1_M11,Q2_M11,T1_M11,T2_M11,T3_M11,T4_M11,T5_M11,U1_M11,ZSPAN_M11,X0_M11,X2_M11,X1_M11
2023-10-13 09:00:00,SystemResetWarning,0828.8,4.99,000.00,026.1,024.6,000.0,034.6,027.8,15.9,0000.0,0001.66,0000.24,0000.12
2023-10-13 09:01:00,SystemResetWarning,0828.8,5.00,000.00,026.1,024.6,000.0,034.6,027.8,15.9,0000.0,0001.64,0000.24,0000.12
2023-10-13 09:02:00,SystemResetWarning,0828.8,4.99,000.00,026.1,024.6,000.0,034.6,027.8,15.7,0000.0,0001.70,0000.25,0000.13
2023-10-13 09:03:00,SystemResetWarning,0828.8,5.00,000.00,026.1,024.6,000.0,034.6,027.9,15.5,0000.0,0002.14,0000.25,0000.13
2023-10-13 09:04:00,SystemResetWarning,0828.8,5.00,000.00,026.1,024.6,000.0,034.6,027.9,15.4,0000.0,0002.70,0000.24,0000.14
2023-10-13 09:05:00,SystemResetWarning,0828.8,5.00,000.00,026.1,024.6,000.0,034.6,027.9,15.4,0000.0,0002.83,0000.26,0000.14
2023-10-13 09:06:00,SystemResetWarning,0828.8,5.00,000.00,026.1,024.7,000.0,034.6,027.9,15.4,0000.0,0002.83,0000.26,0000.15
2023-10-13 09:07:00,SystemResetWarning,0828.7,5.01,000.00,026.1,024.7,000.0,034.6,027.9,15.3,0000.0,0002.80,0000.26,0000.15
2023-10-13 09:08:00,SystemResetWarning,0828.7,5.01,000.00,026.1,024.7,000.0,034.6,027.9,15.0,0000.0,0002.84,0000.28,0000.16
2023-10-13 09:09:00,SystemResetWarning,0828.8,5.00,000.00,026.2,024.7,000.0,034.6,027.9,14.6,0000.0,0002.87,0000.29,0000.17
2023-10-13 09:10:00,SystemResetWarning,0828.8,5.00,000.00,026.2,024.7,000.0,034.6,027.9,14.4,0000.0,0003.00,0000.34,0000.17
2023-10-13 09:11:00,SystemResetWarning,0828.8,5.00,000.00,026.1,024.7,000.0,034.6,027.9,14.4,0000.0,0002.08,0000.35,0000.18
2023-10-13 09:12:00,SystemResetWarning,0828.8,5.00,000.00,026.2,024.7,000.0,034.6,027.9,14.3,0000.0,0001.89,0000.37,0000.18
2023-10-13 09:13:00,SystemResetWarning,0828.9,5.00,000.00,026.2,024.7,000.0,034.6,027.9,14.2,0000.0,0002.34,0000.37,0000.18
2023-10-13 09:14:00,SystemResetWarning,0829.0,5.00,000.00,026.2,024.7,000.0,034.5,027.9,14.1,0000.0,0002.72,0000.38,0000.18
2023-10-13 09:15:00,SystemResetWarning,0829.0,5.00,000.00,026.2,024.7,000.0,034.5,027.9,14.0,0000.0,0002.32,0000.37,0000.18
2023-10-13 09:16:00,SystemResetWarning,0828.9,5.00,000.00,026.2,024.7,000.0,034.6,027.9,14.0,0000.0,0002.17,0000.36,0000.18
2023-10-13 09:17:00,SystemResetWarning,0829.0,5.00,000.00,026.2,024.7,000.0,034.6,027.9,14.0,0000.0,0002.20,0000.38,0000.17
2023-10-13 09:18:00,SystemResetWarning,0828.9,5.01,000.00,026.2,024.7,000.0,034.6,027.9,14.0,0000.0,0002.59,0000.38,0000.17
2023-10-13 09:19:00,SystemResetWarning,0828.9,5.01,000.00,026.2,024.7,000.0,034.6,027.9,14.0,0000.0,0002.70,0000.38,0000.17
2023-10-13 09:20:00,SystemResetWarning,0828.9,5.00,000.00,026.2,024.7,000.0,034.6,027.9,14.0,0000.0,0002.77,0000.40,0000.17
2023-10-13 09:21:00,SystemResetWarning,0829.0,5.00,000.00,026.2,024.7,000.0,034.6,027.9,14.0,0000.0,0002.69,0000.37,0000.17
2023-10-13 09:22:00,SystemResetWarning,0829.0,5.00,000.00,026.2,024.7,000.0,034.6,027.9,14.0,0000.0,0002.70,0000.38,0000.17
2023-10-13 09:23:00,SystemResetWarning,0829.0,5.00,000.00,026.2,024.7,000.0,034.6,027.9,14.0,0000.0,0002.64,0000.36,0000.17
2023-10-13 09:24:00,SystemResetWarning,0828.9,5.00,000.00,026.2,024.7,000.0,034.6,027.9,14.0,0000.0,0002.15,0000.36,0000.17
2023-10-13 09:25:00,SystemResetWarning,0828.9,4.99,000.00,026.2,024.7,000.0,034.6,027.9,14.0,0000.0,0001.45,0000.34,0000.17
2023-10-13 09:26:00,SystemResetWarning,0829.0,5.00,000.00,026.1,024.7,000.0,034.5,027.9,14.0,0000.0,0001.18,0000.35,0000.18
2023-10-13 09:27:00,SystemResetWarning,0829.0,5.00,000.00,026.2,024.7,000.0,034.5,027.9,14.0,0000.0,0001.19,0000.35,0000.18
2023-10-13 09:28:00,SystemResetWarning,0829.1,5.00,000.00,026.1,024.7,000.0,034.6,027.9,14.1,0000.0,0001.14,0000.33,0000.18
2023-10-13 09:29:00,SystemResetWarning,0829.1,4.99,000.00,026.1,024.6,000.0,034.5,027.8,14.1,0000.0,0000.85,0000.34,0000.19
2023-10-13 09:30:00,SystemResetWarning,0829.1,5.00,000.00,026.1,024.6,000.0,034.5,027.8,14.1,0000.0,0000.67,0000.34,0000.19
2023-10-13 09:31:00,SystemResetWarning,0829.1,5.00,000.00,026.1,024.6,000.0,034.5,027.8,14.1,0000.0,0000.66,0000.32,0000.19
2023-10-13 09:32:00,SystemResetWarning,0829.1,5.00,000.00,026.1,024.6,000.0,034.5,027.8,14.1,0000.0,0000.60,0000.31,0000.20
2023-10-13 09:33:00,SystemResetWarning,0829.1,5.01,000.00,026.1,024.6,000.0,034.5,027.8,14.1,0000.0,0000.64,0000.29,0000.19
2023-10-13 09:34:00,SystemResetWarning,0829.1,5.01,000.00,026.1,024.6,000.0,034.5,027.8,14.1,0000.0,0000.69,0000.30,0000.19
2023-10-13 09:35:00,SystemResetWarning,0829.1,5.01,000.00,026.1,024.6,000.0,034.5,027.8,14.1,0000.0,0000.73,0000.31,0000.19
2023-10-13 09:36:00,SystemResetWarning,0829.1,4.99,000.00,026.1,024.6,000.0,034.5,027.8,14.1,0000.0,0000.82,0000.31,0000.19
2023-10-13 09:37:00,SystemResetWarning,0829.2,4.99,000.00,026.1,024.6,000.0,034.5,027.7,14.1,0000.0,0000.79,0000.29,0000.18
2023-10-13 09:38:00,SystemResetWarning,0829.1,5.00,000.00,026.1,024.6,000.0,034.5,027.7,14.1,0000.0,0001.39,0000.31,0000.18
2023-10-13 09:39:00,SystemResetWarning,0829.1,5.00,000.00,026.1,024.5,000.0,034.5,027.7,14.2,0000.0,0001.64,0000.33,0000.19
2023-10-13 09:40:00,SystemResetWarning,0829.1,5.00,000.00,026.0,024.5,000.0,034.5,027.7,14.2,0000.0,0001.64,0000.33,0000.19
2023-10-13 09:41:00,SystemResetWarning,0829.1,5.00,000.00,026.0,024.5,000.0,034.5,027.7,14.3,0000.0,0001.62,0000.32,0000.19
2023-10-13 09:42:00,SystemResetWarning,0829.1,5.01,000.00,026.0,024.5,000.0,034.5,027.7,14.3,0000.0,0001.60,0000.35,0000.19
2023-10-13 09:43:00,SystemResetWarning,0829.1,5.01,000.00,026.0,024.5,000.0,034.5,027.6,14.4,0000.0,0001.67,0000.38,0000.20
2023-10-13 09:44:00,SystemResetWarning,0829.1,5.00,000.00,026.0,024.5,000.0,034.5,027.6,14.5,0000.0,0001.65,0000.41,0000.22
2023-10-13 09:45:00,SystemResetWarning,0829.2,5.00,000.00,026.0,024.5,000.0,034.5,027.7,14.5,0000.0,0001.61,0000.44,0000.28
2023-10-13 09:46:00,SystemResetWarning,0829.2,5.00,000.00,026.0,024.5,000.0,034.5,027.7,14.5,0000.0,0001.68,0000.51,0000.34
2023-10-13 09:47:00,SystemResetWarning,0829.3,5.00,000.00,026.0,024.5,000.0,034.5,027.7,14.5,0000.0,0001.76,0000.61,0000.42
2023-10-13 09:48:00,SystemResetWarning,0829.3,5.00,000.00,026.0,024.5,000.0,034.5,027.7,14.5,0000.0,0001.85,0000.69,0000.49
2023-10-13 09:49:00,SystemResetWarning,0829.4,5.00,000.00,026.0,024.5,000.0,034.4,027.7,14.5,0000.0,0001.66,0000.75,0000.55
2023-10-13 09:50:00,SystemResetWarning,0829.4,5.00,000.00,026.0,024.5,000.0,034.4,027.7,14.5,0000.0,0001.28,0000.81,0000.63
2023-10-13 09:51:00,SystemResetWarning,0829.3,5.00,000.00,026.0,024.4,000.0,034.4,027.6,14.5,0000.0,0001.39,0000.89,0000.71
2023-10-13 09:52:00,SystemResetWarning,0829.4,5.01,000.00,025.9,024.4,000.0,034.4,027.6,14.5,0000.0,0001.49,0000.97,0000.78
2023-10-13 09:53:00,SystemResetWarning,0829.3,5.01,000.00,025.9,024.4,000.0,034.4,027.5,14.5,0000.0,0001.53,0001.02,0000.85
2023-10-13 09:54:00,SystemResetWarning,0829.3,5.00,000.00,025.9,024.3,000.0,034.4,027.5,14.5,0000.0,0001.58,0001.08,0000.94
2023-10-13 09:55:00,SystemResetWarning,0829.3,5.00,000.00,025.9,024.3,000.0,034.4,027.5,14.4,0000.0,0001.72,0001.15,0001.03
2023-10-13 09:56:00,SystemResetWarning,0829.3,5.00,000.00,025.9,024.3,000.0,034.4,027.5,14.4,0000.0,0001.81,0001.22,0001.09
2023-10-13 09:57:00,SystemResetWarning,0829.4,4.99,000.00,025.9,024.3,000.0,034.4,027.5,14.4,0000.0,0001.88,0001.26,0001.13
2023-10-13 09:58:00,SystemResetWarning,0829.3,5.00,000.00,025.9,024.3,000.0,034.4,027.6,14.3,0000.0,0001.85,0001.27,0001.15
2023-10-13 09:59:00,SystemResetWarning,0829.3,5.00,000.00,025.9,024.4,000.0,034.4,027.6,14.3,0000.0,0001.88,0001.29,0001.18
